FLOCK 3P-68

Last updated on Wed Feb 14 2018 16:20:30 GMT+0000 (Coordinated Universal Time)

1 42003U 17008BH 18044.89120781 .00001633 00000-0 70515-4 0 9993 2 42003 97.4660 110.4709 0009989 85.1352 275.1025 15.23912150 54970

Satellite not in orbit

FLOCK 3P-68